Regional Weather Roundup
Issued by NWS

Home | Current Version | Previous Version | Text Only | Print | Product List | Glossary On
Versions: 1 2 3 4 5 6 7 8 9 10 11 12 13 14 15 16 17 18 19 20 21 22 23 24 25 26 27 28 29 30 31 32 33 34 35 36 37 38 39 40 41 42 43 44 45 46 47 48 49 50
000
ASUS43 KOAX 261610
RWRNE

WEATHER ROUNDUP FOR NEBRASKA
NATIONAL WEATHER SERVICE OMAHA NE
1100 AM CDT WED JUL 26 2017

NOTES: SATELLITE DATA IS BEING USED TO AUGMENT CLOUD COVER ABOVE
       12000 FEET.
       "FAIR" INDICATES FEW OR NO CLOUDS BELOW 12,000 FEET WITH NO
       SIGNIFICANT WEATHER AND/OR OBSTRUCTIONS TO VISIBILITY.


NEZ001>004-019>022-054>056-261700-
NEBRASKA PANHANDLE

CITY           SKY/WX    TMP DP  RH WIND       PRES   REMARKS
SCOTTSBLUFF    CLOUDY    71  58  63 NW10      30.19F
ALLIANCE       CLOUDY    71  61  70 N14       30.17R
CHADRON        CLOUDY    77  55  46 N9        30.17R
GORDON         CLOUDY    73  64  73 N9        30.16R
KIMBALL        CLOUDY    68  60  76 N15       30.23S
SIDNEY         PTSUNNY   77  62  59 N16G24    30.18S
$$

NEZ057>060-069>072-079>082-261700-
SOUTHWEST NEBRASKA

CITY           SKY/WX    TMP DP  RH WIND       PRES   REMARKS
NORTH PLATTE   CLOUDY    75  67  76 N14       30.05R
IMPERIAL       CLOUDY    72  64  76 N15       30.08R
LEXINGTON      CLOUDY    75  70  83 NE8       30.00S
MCCOOK         CLOUDY    74  69  85 N13       29.99R
OGALLALA       CLOUDY    76  65  69 N14       30.10R
$$

NEZ005>010-023>029-035>040-094-261700-
NORTH CENTRAL NEBRASKA

CITY           SKY/WX    TMP DP  RH WIND       PRES   REMARKS
VALENTINE      CLOUDY    81  63  54 N17G23    30.09R
AINSWORTH      CLOUDY    72  69  89 NE6       30.09R
BROKEN BOW     CLOUDY    72  68  87 NE13      30.04R
O`NEILL        CLOUDY    72  71  96 NE7       30.05S
ORD            CLOUDY    72  68  87 N10       30.03R
THEDFORD       CLOUDY    72  69  89 N6        30.10R
$$

NEZ041-046>049-061>064-073>077-083>087-261700-
SOUTH CENTRAL NEBRASKA

CITY           SKY/WX    TMP DP  RH WIND       PRES   REMARKS
GRAND ISLAND   CLOUDY    76  74  93 E9        29.99S
AURORA         CLOUDY    75  74  96 E7        29.98F
HASTINGS       CLOUDY    78  73  84 E8        29.98R
HEBRON         DRIZZLE   78  74  90 SE7       29.94S
HOLDREGE       CLOUDY    76  71  87 E8        29.97S
KEARNEY        CLOUDY    76  72  87 E10       29.99R
YORK           CLOUDY    75  75 100 E7        29.98S
$$

NEZ011>018-030>034-042>045-261700-
NORTHEAST NEBRASKA

CITY           SKY/WX    TMP DP  RH WIND       PRES   REMARKS
NORFOLK        LGT RAIN  74  71  91 NE5       30.02R
ALBION         CLOUDY    74  73  93 N7        30.02S
BLAIR          RAIN      75  73  92 S5        29.98S
COLUMBUS       RAIN      73  72  94 N8        30.00R
FREMONT        CLOUDY    77  71  82 SE5       29.99R
TEKAMAH        CLOUDY    80  74  81 SW9       29.97S
WAYNE          CLOUDY    74  74  99 E8        30.01S
$$

NEZ050>053-065>068-078-088>093-261700-
SOUTHEAST NEBRASKA

CITY           SKY/WX    TMP DP  RH WIND       PRES   REMARKS
LINCOLN        CLOUDY    77  72  84 SE5       29.97S
OMAHA EPPLEY   LGT RAIN  76  72  87 S8        29.98F
BEATRICE       PTSUNNY   76  73  88 SE8       29.95F
FALLS CITY     CLOUDY    76  74  93 E5        29.99R
NEBRASKA CITY  PTSUNNY   73  73 100 S6        29.99R
$$

NEZ044-045-051>053-067-261700-
OMAHA AREA

CITY           SKY/WX    TMP DP  RH WIND       PRES   REMARKS
OMAHA EPPLEY   LGT RAIN  76  72  87 S8        29.98F
BLAIR          RAIN      75  73  92 S5        29.98S
FREMONT        CLOUDY    77  71  82 SE5       29.99R
MILLARD        LGT RAIN  76  74  91 SE7       29.98S
OFFUTT AFB     CLOUDY    74  72  91 SE8       29.98S
WAHOO          LGT RAIN  74  72  93 SE6       29.97F
$$




USA.gov is the U.S. government's official web portal to all federal, state and local government web resources and services.